When you browse on this site, cookies collect data to enhance your experience and personalize the content and advertising you see.
Visit our Privacy Policy to learn more. By continuing to use the site, you agree to this use of cookies and data.
  • In Spain
  • List of Countries
  • For 7 days
  • Water Temperature
  • Satellite Maps
  • Weather Map
  • Weather Widgets
  • user-avatar
    Login

    Hourly Weather Rawson

    Today, 21 July, Sunday

    Time Temperature Precipitation Wind Pressure Humidity
    00:00 +7°C° 0 mm 6 mps 743 mmHg 80%
    01:00 +7°C° 0 mm 5 mps 743 mmHg 80%
    02:00 +7°C° 0 mm 4 mps 743 mmHg 80%
    03:00 +6°C° 0 mm 5 mps 743 mmHg 82%
    04:00 +6°C° 0 mm 5 mps 743 mmHg 84%
    05:00 +4°C° 0 mm 6 mps 744 mmHg 85%
    06:00 +4°C° 0 mm 6 mps 744 mmHg 84%
    07:00 +5°C° 0 mm 5 mps 745 mmHg 83%
    08:00 +3°C° 0 mm 5 mps 745 mmHg 82%
    09:00 +5°C° 0 mm 5 mps 746 mmHg 75%
    10:00 +6°C° 0 mm 5 mps 747 mmHg 68%
    11:00 +7°C° 0 mm 5 mps 748 mmHg 61%
    12:00 +8°C° 0 mm 5 mps 748 mmHg 56%
    13:00 +8°C° 0 mm 5 mps 748 mmHg 51%
    14:00 +9°C° 0 mm 5 mps 748 mmHg 46%
    15:00 +8°C° 0 mm 5 mps 749 mmHg 48%
    16:00 +8°C° 0 mm 4 mps 749 mmHg 50%
    17:00 +7°C° 0 mm 4 mps 750 mmHg 52%
    18:00 +7°C° 0 mm 4 mps 751 mmHg 54%
    19:00 +6°C° 0 mm 4 mps 752 mmHg 56%
    20:00 +6°C° 0 mm 4 mps 752 mmHg 57%
    21:00 +5°C° 0 mm 4 mps 753 mmHg 58%
    22:00 +5°C° 0 mm 4 mps 754 mmHg 59%
    23:00 +4°C° 0 mm 4 mps 755 mmHg 59%

    Tomorrow, 22 July, Monday

    Time Temperature Precipitation Wind Pressure Humidity
    00:00 +3°C° 0 mm 5 mps 755 mmHg 61%
    01:00 +3°C° 0 mm 5 mps 755 mmHg 63%
    02:00 +2°C° 0 mm 6 mps 756 mmHg 65%
    03:00 +2°C° 0 mm 6 mps 756 mmHg 65%
    04:00 +2°C° 0 mm 6 mps 757 mmHg 66%
    05:00 +2°C° 0 mm 6 mps 757 mmHg 67%
    06:00 +2°C° 0 mm 7 mps 758 mmHg 66%
    07:00 0°C° 0 mm 7 mps 758 mmHg 66%
    08:00 0°C° 0 mm 7 mps 758 mmHg 65%
    09:00 +1°C° 0 mm 8 mps 759 mmHg 58%
    10:00 +2°C° 0 mm 8 mps 759 mmHg 52%
    11:00 +3°C° 0 mm 9 mps 760 mmHg 45%
    12:00 +5°C° 0 mm 8 mps 760 mmHg 43%
    13:00 +6°C° 0 mm 8 mps 760 mmHg 41%
    14:00 +8°C° 0 mm 7 mps 759 mmHg 38%
    15:00 +7°C° 0 mm 6 mps 760 mmHg 41%
    16:00 +7°C° 0 mm 5 mps 760 mmHg 43%
    17:00 +7°C° 0 mm 4 mps 761 mmHg 46%
    18:00 +6°C° 0 mm 5 mps 761 mmHg 48%
    19:00 +6°C° 0 mm 5 mps 761 mmHg 51%
    20:00 +4°C° 0 mm 6 mps 761 mmHg 53%
    21:00 +4°C° 0 mm 7 mps 761 mmHg 55%
    22:00 +4°C° 0 mm 7 mps 762 mmHg 56%
    23:00 +2°C° 0 mm 8 mps 762 mmHg 58%

    Day after tomorrow, 23 July, Tuesday

    Time Temperature Precipitation Wind Pressure Humidity
    00:00 +3°C° 0 mm 7 mps 762 mmHg 59%
    01:00 +3°C° 0 mm 7 mps 762 mmHg 60%
    02:00 +3°C° 0 mm 7 mps 762 mmHg 62%
    03:00 +2°C° 0 mm 7 mps 762 mmHg 62%
    04:00 +2°C° 0 mm 7 mps 762 mmHg 62%
    05:00 +2°C° 0 mm 7 mps 763 mmHg 62%
    06:00 +1°C° 0 mm 8 mps 763 mmHg 61%
    07:00 +1°C° 0 mm 8 mps 763 mmHg 61%
    08:00 +1°C° 0 mm 8 mps 763 mmHg 61%
    09:00 +4°C° 0 mm 8 mps 764 mmHg 56%
    10:00 +5°C° 0 mm 9 mps 764 mmHg 51%
    11:00 +6°C° 0 mm 9 mps 765 mmHg 46%
    12:00 +7°C° 0 mm 8 mps 765 mmHg 45%
    13:00 +8°C° 0 mm 7 mps 765 mmHg 43%
    14:00 +9°C° 0 mm 6 mps 765 mmHg 41%
    15:00 +8°C° 0 mm 5 mps 765 mmHg 46%
    16:00 +8°C° 0 mm 5 mps 766 mmHg 50%
    17:00 +7°C° 0 mm 4 mps 767 mmHg 54%
    18:00 +6°C° 0 mm 4 mps 767 mmHg 60%
    19:00 +6°C° 0 mm 4 mps 768 mmHg 66%
    20:00 +5°C° 0 mm 4 mps 769 mmHg 72%
    21:00 +4°C° 0 mm 3 mps 769 mmHg 72%
    22:00 +4°C° 0 mm 3 mps 769 mmHg 71%
    23:00 +5°C° 0 mm 2 mps 770 mmHg 71%

    24 July, Wednesday

    Time Temperature Precipitation Wind Pressure Humidity
    00:00 +5°C° 0 mm 1 mps 770 mmHg 72%
    01:00 +5°C° 0 mm 1 mps 770 mmHg 73%
    02:00 +3°C° 0 mm 0 mps 770 mmHg 74%
    03:00 +4°C° 0 mm 1 mps 770 mmHg 74%
    04:00 +3°C° 0 mm 2 mps 770 mmHg 74%
    05:00 +4°C° 0 mm 2 mps 770 mmHg 74%
    06:00 +3°C° 0 mm 3 mps 770 mmHg 75%
    07:00 +2°C° 0 mm 3 mps 770 mmHg 77%
    08:00 +1°C° 0 mm 4 mps 770 mmHg 79%
    09:00 +4°C° 0 mm 4 mps 771 mmHg 72%
    10:00 +6°C° 0 mm 5 mps 771 mmHg 65%
    11:00 +7°C° 0 mm 6 mps 771 mmHg 58%
    12:00 +8°C° 0 mm 7 mps 770 mmHg 53%
    13:00 +9°C° 0 mm 7 mps 770 mmHg 48%
    14:00 +10°C° 0 mm 7 mps 769 mmHg 44%
    15:00 +9°C° 0 mm 7 mps 769 mmHg 46%
    16:00 +9°C° 0 mm 7 mps 769 mmHg 48%
    17:00 +8°C° 0 mm 7 mps 768 mmHg 49%
    18:00 +7°C° 0 mm 8 mps 768 mmHg 50%
    19:00 +7°C° 0 mm 8 mps 768 mmHg 51%
    20:00 +6°C° 0 mm 9 mps 768 mmHg 52%
    21:00 +6°C° 0 mm 9 mps 768 mmHg 52%
    22:00 +6°C° 0 mm 10 mps 767 mmHg 52%
    23:00 +5°C° 0 mm 10 mps 767 mmHg 53%

    25 July, Thursday

    Time Temperature Precipitation Wind Pressure Humidity
    00:00 +5°C° 0 mm 10 mps 767 mmHg 52%
    01:00 +5°C° 0 mm 10 mps 766 mmHg 51%
    02:00 +4°C° 0 mm 11 mps 766 mmHg 51%
    03:00 +4°C° 0 mm 11 mps 766 mmHg 50%
    04:00 +4°C° 0 mm 11 mps 765 mmHg 50%
    05:00 +4°C° 0 mm 12 mps 764 mmHg 49%
    06:00 +4°C° 0 mm 12 mps 764 mmHg 50%
    07:00 +4°C° 0 mm 11 mps 764 mmHg 51%
    08:00 +3°C° 0 mm 11 mps 764 mmHg 51%
    09:00 +5°C° 0 mm 12 mps 763 mmHg 46%
    10:00 +8°C° 0 mm 13 mps 763 mmHg 41%
    11:00 +9°C° 0 mm 13 mps 763 mmHg 36%
    12:00 +10°C° 0 mm 13 mps 762 mmHg 33%
    13:00 +12°C° 0 mm 14 mps 762 mmHg 30%
    14:00 +14°C° 0 mm 14 mps 761 mmHg 28%
    15:00 +13°C° 0 mm 14 mps 761 mmHg 30%
    16:00 +12°C° 0 mm 14 mps 761 mmHg 32%
    17:00 +10°C° 0 mm 14 mps 760 mmHg 34%
    18:00 +10°C° 0 mm 14 mps 761 mmHg 36%
    19:00 +9°C° 0 mm 13 mps 761 mmHg 37%
    20:00 +9°C° 0 mm 12 mps 761 mmHg 39%
    21:00 +9°C° 0 mm 11 mps 761 mmHg 40%
    22:00 +8°C° 0 mm 10 mps 761 mmHg 41%
    23:00 +8°C° 0 mm 9 mps 761 mmHg 42%

    26 July, Friday

    Time Temperature Precipitation Wind Pressure Humidity
    00:00 +9°C° 0 mm 8 mps 761 mmHg 43%
    01:00 +8°C° 0 mm 7 mps 762 mmHg 45%
    02:00 +8°C° 0 mm 6 mps 762 mmHg 47%
    03:00 +7°C° 0 mm 6 mps 762 mmHg 48%
    04:00 +7°C° 0 mm 5 mps 762 mmHg 49%
    05:00 +7°C° 0 mm 5 mps 763 mmHg 50%
    06:00 +7°C° 0 mm 4 mps 763 mmHg 53%
    07:00 +7°C° 0 mm 4 mps 763 mmHg 55%
    08:00 +8°C° 0 mm 3 mps 764 mmHg 57%
    09:00 +9°C° 0 mm 3 mps 764 mmHg 54%
    10:00 +10°C° 0 mm 3 mps 764 mmHg 51%
    11:00 +11°C° 0 mm 3 mps 765 mmHg 49%
    12:00 +12°C° 0 mm 3 mps 765 mmHg 47%
    13:00 +12°C° 0 mm 3 mps 765 mmHg 45%
    14:00 +13°C° 0 mm 3 mps 765 mmHg 43%
    15:00 +13°C° 0 mm 2 mps 765 mmHg 47%
    16:00 +13°C° 0 mm 1 mps 766 mmHg 51%
    17:00 +12°C° 0 mm 1 mps 766 mmHg 54%
    18:00 +11°C° 0 mm 1 mps 767 mmHg 55%
    19:00 +11°C° 0 mm 1 mps 767 mmHg 56%
    20:00 +9°C° 0 mm 2 mps 768 mmHg 56%
    21:00 +9°C° 0 mm 2 mps 768 mmHg 57%
    22:00 +9°C° 0 mm 2 mps 768 mmHg 57%
    23:00 +8°C° 0 mm 2 mps 768 mmHg 58%
    Show more